Temperature
23 23 23 23 20 20 23 25 25 26 26 26 26 25 23 22 22 21 21 20 20 20 20 20 20 19 19 19 19 19 19 19 19 19 19 19 19 19 19 19 19 19 19 19 18 18 18 18 18
24 23 23 23 20 21 24 25 25 27 26 26 26 25 23 22 22 21 20 20 20 20 20 20 20 19 19 19 19 19 19 19 19 19 19 19 19 18 18 18 18 18 18 18 18 18 18 18 18
24 24 23 21 22 22 25 25 26 27 28 27 26 25 23 22 22 21 21 20 20 20 20 20 20 19 19 19 19 19 19 19 19 19 19 18 18 18 18 18 18 18 18 18 18 18 18 18 18
24 24 23 21 23 24 25 25 26 27 27 26 25 24 23 22 22 22 21 20 20 20 20 20 20 19 19 19 19 19 19 19 19 19 18 18 18 18 18 18 18 18 18 18 18 18 18 18 18
24 23 21 22 23 25 26 27 28 26 26 25 24 22 22 22 22 21 21 20 20 20 20 20 20 19 19 19 19 19 19 19 19 19 18 18 18 18 18 18 18 18 18 18 18 18 18 18 18
24 21 21 21 23 25 27 28 28 26 25 25 24 22 22 22 21 21 21 21 20 20 20 20 19 19 19 19 19 19 19 19 19 19 18 18 18 18 18 18 18 18 18 18 18 18 18 18 18
23 20 20 21 22 25 27 28 27 25 25 25 24 22 21 21 21 21 21 21 20 20 20 20 19 19 19 19 19 19 19 19 18 18 18 18 18 18 18 18 18 18 18 18 18 18 18 18 18
24 20 20 20 22 25 28 29 29 28 26 26 25 22 21 21 21 21 21 21 20 20 20 20 19 19 19 19 19 19 19 18 18 18 18 18 18 18 18 18 18 18 18 18 18 18 18 18 18
24 20 20 20 21 23 26 28 29 28 28 26 26 24 23 22 22 21 21 20 20 20 20 20 19 19 19 19 19 19 19 18 18 18 18 18 18 18 18 18 18 18 18 18 18 18 18 18 17
23 20 21 20 21 22 24 27 28 27 26 25 25 24 23 22 22 22 21 21 21 20 20 20 20 19 19 19 19 19 19 19 18 18 18 18 18 18 18 18 18 18 18 18 17 17 17 17 17
22 21 21 21 22 23 24 27 29 26 24 24 24 23 23 22 22 22 22 22 21 21 21 20 20 20 20 19 19 19 19 19 18 18 18 18 18 18 18 18 18 18 18 18 17 17 17 17 17
24 23 24 24 24 25 26 27 28 28 27 27 26 25 23 23 23 23 22 22 22 21 21 21 20 20 20 20 19 19 19 19 18 18 18 18 18 17 18 18 18 18 18 18 17 17 17 17 17
23 24 26 26 26 26 27 27 27 28 28 27 26 25 24 24 24 24 23 23 22 21 21 21 21 21 21 20 20 19 19 19 19 18 17 17 18 17 17 18 18 18 18 18 17 17 17 17 17
24 25 25 26 26 26 26 26 26 27 27 26 25 25 25 25 25 24 23 23 22 22 22 21 21 21 21 21 20 20 20 19 19 18 18 17 17 17 17 17 18 18 18 17 17 17 17 17 17
25 24 24 24 24 24 25 24 24 25 26 25 25 25 25 26 25 25 24 24 23 23 22 22 22 21 21 21 21 21 20 20 19 19 18 18 17 17 17 17 17 17 17 17 17 17 17 17 17
23 22 22 22 22 23 24 23 23 23 24 24 24 25 25 26 26 26 25 24 24 23 23 23 22 22 22 21 21 21 20 20 19 19 18 18 18 17 17 17 17 17 17 17 17 17 17 17 17
21 20 21 22 21 22 22 22 21 23 23 23 24 25 25 26 26 26 25 25 24 24 23 23 23 23 22 21 21 21 20 20 19 19 18 18 18 18 18 18 18 17 17 17 17 17 17 17 17
20 20 20 21 21 21 21 20 21 22 22 23 24 25 25 26 26 26 26 25 25 24 24 23 23 23 22 21 21 20 20 20 19 19 19 19 18 18 18 18 18 17 17 17 17 17 17 17 17
20 20 20 20 21 21 20 20 20 21 22 22 23 24 25 26 26 26 26 26 25 24 24 23 23 22 22 21 21 20 20 20 20 19 19 19 18 18 18 18 18 17 17 17 17 17 17 17 17
21 20 20 20 21 21 20 20 20 21 21 23 23 24 25 26 26 26 26 25 25 25 24 24 23 22 22 21 21 20 20 20 19 19 19 19 19 18 18 18 18 17 17 17 17 17 17 17 16
21 20 20 20 20 20 19 18 19 21 21 22 23 24 24 25 25 25 25 25 25 24 24 24 23 22 22 21 20 20 19 19 19 19 18 18 18 18 18 18 17 17 17 17 17 17 17 17 16
20 21 20 20 19 17 18 17 18 19 19 20 21 22 23 25 25 25 25 25 24 24 23 23 23 22 21 21 20 20 19 19 19 18 18 18 18 17 17 17 17 17 17 17 17 17 17 17 16
21 21 20 19 18 17 17 16 17 17 18 18 19 21 22 24 25 24 24 24 23 23 23 23 22 22 21 21 20 20 19 19 18 18 18 17 17 17 17 17 17 17 17 17 17 17 17 16 16
21 19 18 16 15 16 17 16 16 16 16 17 17 18 20 22 23 23 23 22 22 22 22 22 22 22 22 21 21 20 19 19 18 18 18 18 17 17 17 17 17 17 16 16 16 16 16 16 16
19 17 16 16 15 15 17 17 16 16 16 16 16 16 17 20 21 21 21 21 22 22 22 21 22 22 22 21 20 19 19 18 18 18 18 18 17 17 17 17 16 16 16 16 16 16 16 16 16
18 18 16 16 15 16 17 16 15 16 16 16 15 15 16 17 18 19 20 21 21 22 22 22 21 21 21 20 20 19 19 18 18 18 18 17 17 17 16 16 16 16 16 16 15 15 15 15 15
17 16 16 15 15 15 16 16 16 16 15 15 15 15 14 15 16 17 18 19 20 21 21 21 21 21 21 20 20 19 19 18 18 18 17 17 17 16 16 16 16 16 15 15 15 15 15 15 15
16 15 13 14 15 15 15 15 14 14 14 14 15 14 14 15 15 16 17 18 19 20 21 21 21 21 20 20 19 19 19 18 18 18 17 17 17 16 16 16 16 15 15 15 15 15 15 15 15
14 13 13 13 14 14 14 14 14 13 14 14 14 14 14 15 15 16 17 17 19 20 21 21 21 21 20 19 19 19 18 18 18 18 18 17 17 16 16 16 16 15 15 15 15 15 15 14 14
14 13 12 13 13 13 13 13 13 13 14 14 14 14 15 15 16 17 17 18 19 20 20 20 21 21 20 19 19 19 18 18 18 18 18 17 17 16 16 16 16 15 15 15 15 14 14 14 14
Wind_Speed
7 4 3 3 5 5 1 2 4 4 4 6 9 11 9 6 4 4 5 15 16 15 14 17 16 15 14 13 13 13 13 14 14 14 14 14 14 13 12 11 11 11 11 11 11 11 11 10 10
3 1 3 3 5 3 1 2 6 5 8 11 9 8 8 5 5 7 7 15 17 16 15 15 16 15 14 13 13 13 13 14 14 14 14 14 13 12 11 11 11 11 10 10 10 11 11 10 10
4 1 2 4 2 4 3 4 6 4 8 7 6 5 7 7 6 5 12 18 16 14 14 15 17 15 14 14 13 13 13 13 13 13 14 13 13 12 11 10 10 11 10 10 10 10 10 10 9
2 4 5 4 2 4 6 6 5 5 6 6 8 6 5 5 6 10 19 18 16 14 14 16 17 15 14 14 13 13 13 13 13 13 13 13 13 11 10 10 10 10 10 10 9 9 9 8 8
3 4 5 3 4 4 3 3 4 6 5 5 8 6 4 3 12 19 19 17 16 12 12 15 16 15 14 13 13 13 13 13 12 13 13 13 12 11 10 10 9 9 9 9 8 8 7 6 6
4 5 4 3 6 4 1 2 6 8 8 8 8 7 3 5 12 16 17 15 15 14 12 14 16 15 14 13 13 13 13 13 13 13 13 13 12 11 10 9 9 9 9 9 8 7 6 4 4
4 4 2 3 6 4 2 5 9 9 9 7 9 7 5 6 10 14 15 14 13 13 11 9 12 13 14 14 13 13 13 13 13 14 13 13 12 11 10 9 9 9 9 10 8 6 4 2 2
5 5 2 3 5 5 2 2 6 9 7 9 7 9 8 9 11 13 14 13 12 11 11 8 9 11 11 12 13 14 14 14 14 14 14 13 12 11 10 9 9 10 10 10 8 6 4 1 1
4 5 2 2 4 7 5 1 2 5 6 4 4 7 13 17 14 14 12 8 10 11 9 10 8 8 10 11 12 13 14 14 14 14 14 13 10 9 9 8 9 9 9 8 7 5 3 1 1
4 4 5 3 4 7 9 4 3 5 6 5 8 11 18 17 16 15 15 13 13 12 12 10 10 9 9 10 10 10 10 12 12 11 12 11 10 9 8 10 9 9 8 7 5 3 1 1 3
5 5 6 7 10 8 6 5 1 8 5 10 17 20 19 16 16 17 17 16 15 15 15 14 12 10 8 6 8 7 8 9 10 11 12 11 8 7 7 7 6 6 6 4 3 3 3 2 2
2 5 6 7 9 6 5 4 2 4 8 15 22 25 22 19 18 18 18 16 14 14 15 15 15 12 10 8 7 7 6 6 6 10 12 9 5 5 5 5 5 5 5 4 3 3 4 4 3
2 3 3 4 5 6 5 4 3 4 3 15 19 21 22 21 18 17 17 16 14 15 15 16 16 15 13 10 8 7 6 7 9 10 12 12 6 6 4 4 6 7 6 4 3 2 2 4 6
4 6 7 6 5 3 5 7 3 5 2 13 18 19 20 21 19 16 15 15 15 16 16 16 17 16 14 11 10 9 8 9 9 10 13 15 11 7 6 5 4 6 7 6 3 3 4 5 6
5 6 8 6 6 4 4 6 4 7 3 7 13 15 16 17 17 18 20 18 17 18 17 17 17 16 16 14 12 10 8 9 7 9 13 15 15 12 8 7 6 6 9 6 4 4 5 6 6
5 4 4 5 7 8 2 7 4 7 5 2 6 9 11 13 15 17 19 18 17 16 17 18 17 17 16 14 12 9 7 7 6 8 10 13 16 16 10 8 7 9 8 5 5 5 5 5 6
5 3 4 5 4 5 3 6 6 6 4 3 4 8 10 12 13 14 18 20 18 18 18 19 16 17 16 13 10 8 7 7 5 6 7 9 12 14 10 8 7 9 5 5 7 5 5 5 5
3 3 4 5 5 3 3 7 9 6 5 6 6 7 9 10 12 13 18 19 18 17 17 18 14 15 13 9 6 5 6 6 5 5 6 8 8 9 8 6 8 7 6 6 6 6 5 5 5
4 4 6 6 4 3 5 8 10 8 7 8 8 8 9 11 10 9 15 17 16 15 15 14 13 12 10 7 7 6 6 6 6 6 7 8 7 7 5 6 7 7 7 8 8 5 6 4 3
4 5 6 6 4 4 7 10 10 9 8 9 9 9 11 11 7 7 10 14 15 14 13 12 11 11 11 8 6 4 4 4 5 5 6 8 7 7 6 7 7 7 7 8 8 6 5 3 3
6 6 6 7 4 3 5 8 7 6 5 7 8 9 10 13 12 11 11 11 12 12 12 11 10 10 10 9 6 5 4 3 2 4 5 6 7 7 6 7 7 7 7 8 8 8 8 5 3
6 8 7 4 2 4 2 6 8 7 8 8 10 9 8 11 12 12 13 13 13 11 10 10 10 10 10 10 9 8 6 5 6 5 6 6 6 6 7 7 7 7 6 7 8 8 6 8 5
7 4 3 2 2 3 2 3 8 8 11 14 14 12 7 5 11 13 14 14 14 12 11 9 10 9 9 8 9 8 5 4 3 3 5 5 5 5 6 7 7 7 7 8 7 7 7 6 6
2 5 5 5 4 3 4 4 5 7 11 17 19 19 12 3 6 10 10 12 13 12 11 8 8 7 7 8 8 7 7 5 4 4 4 4 3 4 6 6 7 7 6 7 8 8 8 7 7
7 5 4 5 2 6 4 3 1 8 12 15 18 18 16 11 5 10 12 11 12 12 11 8 9 7 6 7 6 6 6 5 6 5 5 4 3 3 4 5 6 6 6 7 7 7 8 8 8
5 3 4 4 5 4 3 2 3 7 11 14 17 17 17 16 12 5 6 8 10 11 10 10 8 7 6 5 4 4 5 4 3 4 4 4 3 3 3 4 5 6 6 7 7 7 8 7 8
5 2 2 3 3 3 4 0 2 11 16 18 19 19 18 16 13 11 7 3 6 9 9 9 8 6 5 4 3 3 5 5 4 4 3 3 2 2 3 4 3 4 4 6 7 6 8 7 8
5 2 3 2 2 3 3 3 7 14 15 15 16 16 14 14 13 12 10 6 2 3 5 7 7 6 5 5 4 4 6 6 5 5 4 3 3 3 4 4 3 3 2 3 4 4 6 7 8
6 4 3 1 1 2 0 3 7 10 11 11 11 11 10 11 10 9 6 6 6 4 4 6 7 6 5 5 4 6 5 5 5 5 4 4 3 4 4 4 3 3 2 2 2 2 3 5 6
3 2 2 2 1 1 2 1 8 10 10 9 10 10 9 7 5 4 5 8 9 6 5 5 7 7 6 6 6 6 5 5 5 4 4 4 5 4 4 4 4 3 3 2 2 2 3 4 4
Wind_Direction
283 285 122 94 52 49 101 201 135 83 62 70 87 93 95 90 114 145 141 152 142 150 160 159 158 153 146 140 135 131 130 130 130 128 125 121 118 114 109 105 100 96 92 88 88 90 94 97 98
303 315 105 66 73 67 1 169 113 111 127 117 95 99 94 83 101 110 119 144 144 150 155 158 160 156 151 147 141 136 134 134 133 132 131 128 125 121 117 113 110 106 102 96 93 92 93 94 94
292 246 79 60 92 165 169 194 157 133 127 124 100 75 95 123 120 120 142 143 144 148 152 158 159 157 156 152 147 142 139 138 137 136 136 135 131 127 122 120 116 113 110 105 99 95 93 93 94
23 43 52 56 280 221 182 200 171 122 86 90 101 67 67 130 138 132 142 145 146 149 152 158 158 159 159 156 152 149 146 144 142 141 141 141 137 132 127 124 121 118 115 111 105 99 94 91 88
76 68 48 4 285 254 206 189 145 124 111 91 95 84 50 59 119 134 146 147 145 147 153 159 159 160 161 160 159 155 153 151 149 146 145 145 142 138 132 128 128 127 122 118 116 109 102 94 84
54 62 60 328 294 285 298 84 82 91 108 110 105 106 101 130 129 139 146 146 144 148 153 158 160 160 162 162 162 160 158 157 155 151 149 149 147 143 137 133 134 133 129 129 127 121 115 101 74
96 82 93 286 291 285 189 121 104 118 141 147 133 104 122 152 143 141 142 143 144 147 150 151 158 161 163 163 163 162 160 160 158 154 154 153 151 147 143 141 142 139 137 138 140 142 139 121 47
120 102 108 292 291 283 282 115 130 128 142 142 127 132 156 176 146 135 138 142 144 148 153 153 154 157 158 163 164 162 162 162 161 160 159 157 155 152 150 149 151 148 146 147 152 158 160 177 344
89 89 146 281 302 293 307 21 108 100 114 121 122 143 155 155 141 135 138 143 151 157 160 162 161 159 157 159 166 164 164 166 164 163 163 158 153 152 153 160 163 158 156 155 160 168 169 176 353
91 128 178 200 247 266 293 288 152 92 88 80 85 110 142 151 151 152 157 164 168 170 172 171 170 165 162 166 155 158 161 163 161 163 161 156 158 163 168 174 173 171 169 167 172 188 227 345 15
144 171 189 203 231 253 273 285 170 128 147 161 148 150 158 162 165 167 171 176 179 176 176 177 175 170 169 156 153 156 157 162 165 168 165 163 168 176 171 177 182 185 184 180 196 226 252 274 353
232 221 202 218 222 228 245 287 332 184 191 175 162 162 167 172 176 177 179 183 181 178 180 177 176 173 172 161 165 166 166 174 177 182 177 168 167 168 175 184 191 199 206 207 218 219 234 232 191
280 279 278 267 251 242 252 252 253 268 187 165 165 166 175 181 184 185 183 183 179 181 181 176 172 172 172 167 171 174 177 186 190 187 187 180 172 176 183 192 200 212 217 215 218 216 179 151 139
271 299 296 290 307 309 275 267 256 274 220 164 173 180 185 188 188 184 185 185 183 184 182 177 173 173 171 174 177 179 183 188 192 192 191 187 183 182 185 194 203 218 219 214 197 177 138 124 123
319 328 324 339 343 316 290 279 263 295 307 180 186 195 198 199 191 187 187 186 184 185 183 180 178 175 175 179 181 181 185 186 190 196 195 189 186 190 189 194 201 217 222 202 164 149 124 117 122
344 350 324 334 0 335 307 251 280 335 347 228 212 216 215 216 205 195 188 185 182 180 182 183 183 180 181 182 184 182 182 181 189 196 196 192 189 192 191 194 199 207 208 177 157 148 128 124 129
10 337 301 312 359 349 18 270 295 321 343 299 245 234 232 228 220 201 188 184 181 180 181 184 184 182 184 182 182 176 173 177 178 186 191 196 195 193 190 195 196 192 184 178 167 154 142 139 140
269 286 292 297 311 332 316 281 290 294 298 284 266 250 240 235 227 202 188 183 180 180 181 185 185 180 177 171 162 155 162 171 170 187 197 199 197 196 194 200 195 180 176 178 166 154 147 148 152
208 245 271 269 260 275 269 275 281 278 275 277 277 266 253 242 237 204 184 178 176 178 178 180 180 175 166 161 162 162 177 181 185 202 205 204 200 197 188 203 197 185 183 180 161 147 142 137 128
220 252 268 276 261 273 272 273 269 256 248 252 261 262 253 252 241 205 177 172 172 174 174 172 172 166 165 165 163 163 161 179 192 203 209 211 206 193 189 192 200 192 183 174 164 150 138 144 143
246 235 240 256 302 319 313 304 294 287 274 279 275 267 249 230 215 197 174 161 154 155 163 165 157 149 147 144 135 121 105 97 155 213 220 219 209 193 184 182 193 196 183 183 177 163 150 158 169
253 244 225 241 322 301 342 299 297 310 323 325 312 292 263 226 197 180 164 151 142 139 141 139 134 130 134 138 144 151 163 177 195 198 211 216 201 191 186 184 186 188 188 189 191 175 160 154 166
230 232 199 192 178 302 295 244 296 345 348 340 336 333 322 231 180 164 157 147 136 131 125 125 124 126 132 137 145 147 155 176 178 182 203 215 208 194 188 187 186 185 187 191 191 180 170 167 169
48 45 37 50 79 287 249 209 306 2 354 350 353 354 354 11 143 133 127 126 121 117 110 114 124 129 135 138 144 152 161 166 168 188 202 212 208 194 189 188 192 190 187 189 191 188 183 189 182
25 54 8 343 345 250 241 189 53 7 11 8 1 1 5 16 78 124 130 131 129 124 128 145 148 148 147 144 152 166 173 178 192 201 202 197 194 195 195 187 193 195 195 193 187 190 197 196 191
302 165 188 235 240 276 288 205 107 12 12 14 13 7 12 21 21 44 115 130 134 134 147 155 157 155 153 151 169 190 180 172 190 192 181 185 191 199 184 179 190 196 195 195 192 198 204 202 203
336 329 197 179 238 256 277 113 57 7 12 13 11 12 12 12 19 24 25 80 128 141 163 159 157 156 160 164 171 181 169 161 164 162 159 163 170 167 148 152 165 184 192 195 194 207 212 207 208
19 356 50 93 213 245 311 34 3 352 353 359 3 3 4 9 14 20 14 5 7 157 165 158 159 168 171 164 163 159 153 152 151 140 142 146 150 140 135 133 136 141 157 175 189 207 214 213 217
8 25 28 124 155 160 40 44 360 337 332 338 341 346 355 6 8 9 359 314 284 251 200 173 176 175 172 161 150 145 148 148 145 143 153 158 159 159 159 158 153 148 145 143 157 191 196 207 215
74 47 45 118 86 95 129 77 342 333 328 330 333 335 339 345 344 315 277 261 266 268 245 210 193 184 181 166 152 158 159 157 157 167 178 173 175 180 179 172 167 168 170 166 166 189 195 200 208
Height
1498 1497 1496 1496 1499 1508 1507 1498 1491 1488 1488 1487 1487 1489 1494 1498 1502 1509 1505 1506 1509 1510 1512 1514 1516 1518 1519 1520 1521 1522 1523 1523 1524 1525 1526 1527 1528 1529 1529 1530 1530 1531 1531 1531 1531 1532 1532 1532 1533
1497 1497 1497 1496 1505 1518 1508 1495 1490 1487 1488 1488 1489 1491 1494 1498 1499 1502 1503 1506 1509 1511 1512 1514 1516 1518 1519 1520 1521 1522 1523 1524 1525 1526 1527 1528 1528 1529 1530 1530 1530 1531 1531 1532 1532 1533 1533 1533 1534
1497 1496 1497 1498 1506 1512 1504 1492 1487 1485 1486 1486 1490 1492 1495 1499 1500 1501 1503 1507 1509 1511 1513 1515 1516 1517 1519 1520 1521 1522 1523 1524 1525 1526 1527 1528 1529 1529 1530 1530 1531 1531 1532 1532 1533 1534 1534 1534 1535
1497 1497 1497 1503 1505 1498 1492 1488 1484 1485 1487 1487 1489 1495 1498 1500 1500 1501 1504 1507 1509 1511 1513 1515 1516 1517 1518 1519 1521 1522 1523 1524 1525 1526 1527 1528 1529 1530 1530 1531 1531 1532 1532 1533 1534 1535 1535 1536 1536
1497 1497 1503 1509 1503 1493 1486 1484 1483 1485 1488 1490 1490 1496 1500 1502 1501 1502 1504 1508 1509 1511 1513 1514 1516 1517 1518 1519 1520 1522 1523 1524 1525 1526 1527 1528 1529 1530 1531 1531 1531 1532 1533 1534 1534 1535 1536 1537 1537
1497 1498 1512 1516 1505 1492 1486 1484 1484 1486 1490 1492 1493 1497 1502 1503 1503 1503 1505 1508 1510 1511 1512 1514 1515 1517 1518 1519 1520 1521 1523 1524 1525 1526 1528 1528 1529 1530 1531 1531 1532 1532 1533 1534 1535 1536 1537 1538 1538
1499 1504 1514 1515 1508 1496 1487 1484 1484 1487 1489 1491 1492 1497 1502 1504 1504 1505 1507 1509 1511 1512 1512 1514 1515 1516 1517 1519 1520 1521 1523 1524 1525 1527 1528 1529 1530 1531 1531 1532 1532 1533 1534 1535 1536 1536 1537 1538 1539
1498 1504 1514 1514 1508 1498 1486 1484 1484 1485 1488 1490 1491 1495 1500 1503 1505 1506 1508 1510 1511 1512 1513 1514 1515 1516 1517 1519 1520 1521 1523 1524 1525 1527 1528 1529 1530 1531 1532 1532 1533 1534 1534 1535 1536 1537 1537 1538 1539
1498 1509 1517 1514 1509 1498 1488 1486 1485 1485 1487 1489 1490 1491 1494 1501 1504 1506 1508 1510 1511 1513 1513 1514 1515 1516 1517 1519 1520 1521 1523 1524 1525 1527 1528 1530 1530 1531 1532 1533 1533 1534 1535 1536 1537 1537 1538 1538 1539
1498 1510 1510 1506 1502 1497 1490 1487 1485 1487 1488 1490 1491 1493 1496 1499 1502 1504 1506 1507 1509 1511 1513 1514 1515 1516 1517 1518 1520 1521 1522 1524 1525 1527 1528 1530 1531 1532 1533 1533 1534 1535 1536 1537 1538 1539 1539 1539 1540
1496 1502 1501 1498 1495 1493 1490 1487 1484 1486 1490 1489 1489 1492 1495 1498 1500 1501 1503 1504 1506 1508 1510 1512 1513 1515 1517 1518 1519 1521 1522 1524 1525 1527 1528 1530 1531 1532 1533 1533 1534 1535 1537 1538 1538 1539 1540 1540 1541
1494 1493 1494 1493 1492 1490 1488 1486 1484 1483 1484 1485 1485 1487 1491 1494 1496 1498 1500 1502 1505 1506 1508 1510 1512 1514 1516 1517 1519 1520 1522 1523 1524 1526 1528 1530 1531 1532 1533 1534 1535 1536 1537 1538 1539 1539 1539 1540 1541
1493 1490 1489 1489 1488 1487 1486 1484 1483 1482 1482 1483 1485 1487 1488 1490 1492 1495 1498 1500 1503 1504 1506 1508 1510 1512 1514 1516 1518 1519 1521 1522 1524 1525 1527 1529 1530 1531 1533 1534 1536 1537 1538 1538 1539 1539 1539 1540 1541
1490 1489 1488 1486 1486 1485 1485 1482 1482 1482 1482 1483 1484 1485 1485 1486 1489 1492 1495 1498 1500 1502 1504 1505 1507 1510 1513 1515 1516 1518 1519 1521 1523 1525 1526 1527 1529 1531 1533 1534 1536 1537 1538 1539 1539 1539 1540 1540 1541
1489 1490 1488 1486 1485 1484 1484 1485 1483 1482 1481 1482 1483 1483 1484 1484 1486 1488 1490 1493 1496 1499 1501 1503 1505 1508 1510 1513 1515 1516 1518 1520 1522 1523 1525 1526 1528 1530 1532 1534 1535 1536 1538 1538 1539 1540 1540 1541 1541
1491 1494 1499 1492 1488 1485 1488 1492 1482 1482 1480 1480 1482 1482 1482 1482 1483 1484 1486 1490 1493 1496 1498 1501 1503 1505 1508 1510 1513 1515 1516 1518 1520 1522 1523 1525 1526 1528 1530 1532 1533 1535 1536 1538 1539 1540 1540 1541 1541
1501 1506 1503 1496 1490 1488 1489 1489 1482 1480 1478 1477 1478 1478 1478 1479 1480 1481 1483 1486 1489 1492 1495 1498 1500 1502 1505 1508 1510 1513 1515 1516 1518 1520 1521 1522 1524 1526 1528 1529 1531 1533 1535 1536 1537 1539 1540 1541 1541
1509 1507 1504 1500 1492 1490 1491 1489 1481 1477 1477 1474 1473 1474 1474 1474 1475 1476 1478 1482 1485 1489 1492 1495 1497 1499 1502 1505 1508 1510 1512 1514 1516 1517 1519 1520 1521 1523 1525 1527 1529 1530 1532 1534 1535 1537 1538 1540 1541
1500 1503 1504 1498 1491 1491 1491 1487 1480 1475 1474 1471 1470 1470 1470 1470 1471 1473 1474 1477 1482 1486 1489 1492 1494 1497 1500 1502 1505 1507 1509 1511 1513 1514 1516 1518 1519 1520 1522 1524 1526 1527 1529 1531 1533 1535 1536 1538 1540
1497 1502 1502 1495 1489 1489 1489 1485 1477 1473 1471 1469 1467 1466 1466 1467 1468 1470 1472 1474 1478 1482 1485 1489 1492 1494 1497 1499 1502 1505 1507 1508 1510 1512 1513 1515 1516 1517 1519 1521 1522 1523 1525 1527 1529 1531 1533 1535 1537
1496 1499 1498 1496 1491 1488 1491 1489 1479 1471 1469 1468 1465 1463 1460 1462 1464 1466 1468 1471 1474 1478 1483 1486 1489 1492 1495 1498 1500 1503 1504 1505 1506 1507 1509 1511 1512 1514 1516 1517 1518 1520 1522 1523 1525 1527 1529 1532 1534
1498 1488 1489 1491 1498 1503 1498 1508 1488 1477 1472 1468 1465 1460 1455 1455 1457 1461 1464 1468 1471 1476 1481 1485 1488 1491 1494 1496 1498 1499 1500 1501 1502 1504 1505 1507 1509 1511 1512 1513 1515 1516 1518 1519 1521 1523 1525 1528 1530
1488 1483 1486 1491 1498 1505 1501 1507 1496 1484 1481 1474 1467 1459 1452 1450 1452 1456 1460 1465 1469 1475 1480 1484 1487 1490 1492 1494 1495 1496 1497 1498 1500 1501 1502 1504 1506 1507 1509 1510 1511 1512 1513 1515 1517 1519 1521 1524 1526
1483 1487 1492 1498 1504 1513 1503 1506 1504 1496 1492 1482 1471 1462 1454 1450 1451 1455 1460 1464 1468 1474 1479 1484 1487 1489 1490 1492 1493 1494 1495 1496 1497 1499 1500 1502 1503 1504 1505 1506 1507 1508 1509 1511 1513 1514 1516 1519 1522
1489 1502 1515 1516 1519 1515 1498 1501 1505 1498 1492 1487 1479 1469 1461 1456 1455 1455 1460 1465 1468 1473 1478 1484 1486 1488 1489 1490 1492 1493 1494 1495 1496 1498 1499 1500 1501 1501 1502 1502 1503 1504 1505 1507 1508 1510 1512 1514 1516
1495 1499 1516 1524 1523 1512 1498 1502 1503 1497 1492 1487 1481 1474 1466 1462 1462 1462 1462 1465 1469 1473 1479 1482 1485 1486 1487 1489 1490 1492 1493 1494 1495 1496 1497 1498 1498 1499 1499 1500 1500 1500 1501 1502 1504 1505 1507 1509 1511
1499 1501 1501 1510 1511 1514 1507 1500 1498 1494 1490 1487 1483 1478 1474 1470 1467 1467 1468 1469 1470 1474 1480 1482 1484 1485 1486 1488 1490 1491 1492 1493 1494 1495 1496 1496 1497 1497 1497 1497 1497 1498 1498 1498 1499 1500 1502 1503 1505
1502 1503 1508 1512 1516 1517 1510 1508 1511 1502 1497 1492 1488 1484 1479 1475 1472 1470 1471 1473 1475 1478 1480 1481 1483 1485 1487 1488 1489 1491 1492 1493 1494 1495 1495 1495 1496 1496 1496 1496 1495 1495 1495 1495 1496 1496 1497 1498 1499
1508 1510 1510 1512 1512 1517 1520 1519 1512 1508 1502 1497 1492 1488 1482 1478 1475 1474 1475 1476 1477 1478 1480 1481 1483 1485 1487 1488 1490 1491 1492 1493 1494 1494 1495 1495 1495 1495 1495 1495 1494 1493 1493 1493 1493 1493 1493 1494 1495
1509 1512 1513 1517 1517 1516 1519 1523 1512 1509 1503 1499 1494 1488 1483 1479 1478 1477 1476 1476 1476 1478 1480 1482 1483 1485 1487 1488 1490 1491 1492 1493 1493 1494 1494 1494 1494 1494 1494 1494 1493 1493 1492 1492 1491 1491 1491 1491 1492